Theta_e
325 327 329 328 327 327 325 324 326 325 320 316 315 315 316 314 309 306 305 305 305 305 305 305 305 308 311 311 308 306 305 306 306 306 309 314 316 317 318 318 319 319 320 321 321 321 322 321 321 320 319 319 319 318 318 318 317 317 317 316 316 316 313 312 311 308 307 307 307 307 308 309 310 310 309 309 308 308 308 307 307 308 308 309 309
324 326 327 327 327 326 325 326 326 323 319 316 315 316 317 314 309 306 305 304 305 304 305 305 305 306 307 308 307 306 305 305 305 305 308 312 313 315 315 316 318 318 319 320 321 321 321 321 319 318 318 318 318 318 318 318 317 317 317 317 316 317 316 314 312 310 308 307 307 308 309 310 310 310 309 308 308 307 307 308 308 308 308 309 309
323 325 324 324 326 326 325 326 326 322 316 313 314 317 318 315 311 308 305 304 305 304 304 305 304 304 306 306 306 305 305 304 305 305 306 308 310 310 311 313 317 318 318 319 320 320 320 320 320 320 320 320 320 320 319 318 317 317 317 317 316 316 316 316 314 311 309 308 308 309 310 310 310 310 310 309 308 308 308 309 309 309 309 309 309
324 324 322 322 325 326 326 326 325 321 315 313 315 318 320 318 316 313 307 304 304 304 305 305 305 304 304 305 305 304 305 304 304 305 306 307 307 307 307 309 313 316 317 317 318 319 319 318 318 318 318 319 319 319 318 317 316 315 315 315 315 315 316 316 316 313 311 309 308 309 310 310 310 310 310 309 309 309 309 310 309 309 309 309 309
324 323 322 323 326 327 326 325 324 320 315 315 316 318 321 321 319 317 312 307 304 304 305 305 305 305 304 305 304 304 304 304 305 306 307 307 307 307 307 308 309 311 312 313 314 316 318 318 317 317 317 317 316 316 316 315 314 314 313 314 314 314 315 316 317 315 312 311 310 308 309 310 310 310 310 310 310 310 310 310 310 310 310 310 309
323 322 323 324 326 326 325 324 323 320 318 319 317 318 321 321 319 319 317 311 306 304 305 305 305 305 304 304 305 304 304 306 307 308 308 308 308 308 309 309 309 309 310 311 312 313 316 317 318 317 317 317 315 314 314 314 314 313 313 313 313 314 314 315 316 316 313 312 311 309 308 310 310 309 309 310 310 310 310 310 310 310 310 310 310
322 322 322 324 325 325 324 323 322 321 322 321 317 318 321 319 318 319 318 315 311 306 305 305 305 305 305 305 305 305 305 307 308 309 309 309 309 309 310 310 310 311 311 311 312 312 313 314 315 315 315 314 314 313 313 313 314 313 313 314 313 314 314 315 316 316 313 312 313 311 308 310 311 310 310 310 310 310 310 310 310 310 310 310 310
322 321 321 322 323 324 324 324 322 322 323 321 318 319 319 317 317 319 318 316 315 311 306 305 306 305 305 305 305 306 306 307 309 309 309 309 309 309 310 310 310 310 310 310 310 310 311 311 311 312 312 312 311 312 312 313 313 313 314 314 314 314 313 314 315 315 312 313 314 313 310 310 311 311 311 311 311 310 310 310 310 310 310 310 310
323 322 322 323 322 322 323 323 322 322 322 321 320 317 316 315 316 317 315 314 316 315 308 304 306 305 305 306 306 307 307 308 309 309 309 309 309 309 309 309 309 309 309 310 310 310 311 311 312 312 312 312 312 312 313 314 314 314 314 313 314 314 313 313 313 313 313 314 315 314 312 310 311 312 312 312 312 312 311 311 311 310 310 311 311
325 324 324 324 323 323 323 322 322 322 321 321 320 315 314 314 314 314 314 312 315 316 311 305 306 306 306 307 308 308 308 308 308 309 309 309 309 309 309 308 309 309 309 310 310 311 313 314 315 315 315 315 315 315 315 315 315 315 315 315 314 314 314 313 312 313 314 315 315 315 314 312 312 312 312 312 313 312 312 312 312 311 310 311 311
326 325 324 323 323 323 323 323 322 322 321 321 320 317 315 314 313 314 314 312 315 317 313 309 309 310 310 312 311 311 310 310 310 310 310 310 309 309 310 310 312 314 315 314 314 314 316 316 316 316 315 315 315 315 315 315 315 315 315 316 315 315 315 314 314 313 314 315 315 315 315 314 313 312 312 312 312 313 313 313 312 311 311 311 311
324 325 323 322 323 322 322 322 321 321 321 320 318 317 316 316 315 314 313 314 317 318 315 312 312 313 314 315 315 315 315 314 314 315 315 315 314 314 315 316 317 318 319 318 317 317 317 317 317 317 317 316 316 315 315 315 315 315 315 315 316 316 316 315 315 314 315 315 316 315 315 315 314 313 312 312 312 312 313 313 312 311 311 311 311
323 323 322 322 322 322 320 320 320 320 320 320 318 317 316 315 314 313 315 317 319 318 317 314 313 314 315 316 316 317 317 317 317 317 318 318 318 318 318 319 319 319 319 319 318 318 318 318 318 318 318 319 318 318 317 316 316 317 316 316 316 316 317 316 316 315 315 315 315 315 315 315 314 314 313 313 312 312 313 313 312 311 311 312 311
322 322 322 321 321 321 320 320 320 320 320 319 318 317 316 314 312 312 317 319 319 319 318 314 311 313 316 317 316 317 317 317 317 317 318 318 318 318 318 319 319 319 319 318 318 318 318 318 318 318 319 319 319 320 319 319 319 318 318 317 316 316 316 317 317 317 316 315 315 315 314 314 314 315 314 313 313 313 313 313 313 312 312 312 312
321 321 320 320 321 320 320 320 321 320 320 318 317 317 317 315 313 313 315 319 319 319 318 315 312 312 315 317 317 317 317 317 317 318 318 318 318 318 318 319 319 319 319 318 318 318 318 318 318 318 318 319 319 320 320 320 319 318 317 316 316 316 316 316 317 318 317 316 315 315 314 314 314 314 314 314 314 314 313 313 313 313 313 312 312
319 319 320 320 320 320 320 320 320 320 320 319 319 319 319 317 316 315 316 318 318 317 317 317 316 316 317 318 318 319 319 318 318 319 319 319 318 319 319 319 318 319 319 318 318 318 318 318 318 318 318 318 318 320 319 318 317 316 315 315 315 316 317 317 317 318 318 317 317 315 314 314 314 313 314 313 313 313 313 313 314 314 313 312 310
313 315 316 317 318 319 319 319 319 318 319 319 320 320 319 318 318 318 319 319 318 316 316 317 318 318 319 319 319 319 319 318 318 318 318 319 319 319 319 318 318 318 318 318 319 319 318 318 318 318 318 318 317 318 317 316 316 315 315 316 316 316 317 317 317 318 318 318 317 316 314 314 314 314 313 313 313 313 314 313 312 311 310 308 305
308 309 310 311 312 313 314 315 316 317 317 318 318 318 319 319 319 320 320 319 318 318 318 318 318 318 318 317 317 318 318 318 317 317 317 317 317 318 318 318 318 318 318 319 319 319 319 318 318 318 318 317 317 316 316 316 316 315 315 315 315 316 316 316 317 318 318 318 318 316 315 314 314 314 314 314 313 312 311 310 308 307 305 304 302
305 305 306 307 307 308 309 310 311 312 313 313 314 315 316 317 317 317 318 318 318 318 319 318 317 317 317 316 316 317 317 317 317 316 316 316 316 317 318 318 318 318 318 318 318 319 318 318 318 318 317 316 316 316 316 316 315 315 315 315 315 315 315 317 317 317 317 316 316 315 315 315 315 313 312 310 309 308 307 306 305 304 303 302 301
302 302 303 304 305 306 307 307 308 309 309 310 311 312 312 312 312 311 311 312 313 314 314 315 315 315 316 315 315 316 315 315 314 315 314 314 315 315 315 315 315 315 315 315 316 316 316 316 316 316 316 316 316 315 315 315 315 315 314 314 315 315 316 317 317 316 315 315 315 315 315 313 311 308 307 306 306 305 305 304 303 302 301 300 300
300 300 300 301 303 304 305 306 307 307 308 309 309 310 310 310 310 310 309 308 308 308 309 310 310 311 312 313 313 313 313 313 313 313 313 313 313 313 313 312 313 313 313 313 314 314 314 314 315 316 316 315 315 315 315 315 315 315 315 315 315 316 317 317 316 315 315 314 314 313 311 308 306 305 305 306 306 305 304 303 301 300 300 299 299
299 299 299 300 300 301 301 303 303 304 304 305 306 307 308 309 309 310 309 308 308 308 308 308 308 308 309 310 310 311 311 312 312 312 312 312 312 312 312 312 312 312 312 311 311 311 310 311 313 314 315 314 314 314 315 315 315 315 315 315 315 316 317 317 315 313 312 312 310 308 307 306 306 306 307 306 305 304 302 301 300 299 299 298 298
299 299 299 299 299 300 300 300 301 301 301 302 302 302 303 304 304 304 304 304 304 305 305 306 306 306 306 306 307 308 309 309 310 311 311 311 312 312 312 312 312 312 312 311 310 308 308 308 309 310 311 312 312 313 314 315 315 315 315 315 315 316 316 315 313 311 310 308 307 307 307 308 308 307 306 305 303 302 300 299 299 299 298 298 298
299 299 299 298 298 299 299 299 299 299 300 300 300 300 300 300 300 300 301 301 301 301 301 302 302 303 303 303 303 303 304 305 305 306 307 309 310 310 311 312 312 311 312 312 311 310 309 308 308 308 308 308 308 310 312 313 313 314 314 315 314 315 314 312 312 311 310 308 308 308 308 308 308 307 305 303 301 300 299 299 299 298 298 297 297
297 297 297 297 297 297 297 297 297 298 298 298 298 298 298 298 298 298 299 299 299 299 299 300 300 300 300 301 301 301 301 302 302 302 303 304 305 306 308 309 310 310 310 310 311 311 311 311 310 309 308 307 307 307 308 309 310 311 313 314 315 314 313 311 311 311 311 310 309 309 308 308 307 304 302 301 300 299 299 298 298 297 297 296 295
297 297 297 297 297 297 297 297 297 297 297 297 297 297 297 297 297 297 297 297 297 297 297 297 298 298 299 299 299 300 300 300 301 301 301 302 302 302 303 304 305 307 308 309 309 310 311 312 312 311 310 309 308 307 307 306 306 307 308 311 312 312 312 310 310 310 311 311 310 309 308 306 304 302 300 300 299 299 298 298 297 296 295 295 294
297 297 297 297 297 297 297 297 297 297 297 297 297 297 297 297 297 296 296 296 296 297 296 296 297 297 297 297 298 298 299 299 300 300 301 301 301 301 301 301 302 303 304 306 308 308 309 310 311 312 311 310 309 309 308 306 305 303 304 306 310 311 311 309 308 308 309 308 308 307 306 303 301 300 299 299 298 298 297 297 296 295 294 293 293
297 297 297 297 297 297 297 297 297 297 297 297 297 297 297 297 297 296 296 296 296 296 296 296 296 296 297 296 297 297 298 298 299 299 299 300 300 300 300 300 301 301 302 304 305 306 307 308 309 310 309 309 309 308 306 305 303 302 303 307 308 309 308 307 307 307 306 305 304 303 302 300 300 299 299 298 297 297 296 295 294 294 293 293 292
296 296 296 296 296 296 296 296 296 296 296 296 297 297 297 297 296 296 296 296 296 296 296 296 296 296 296 296 296 297 297 297 297 297 298 298 298 298 299 299 299 299 300 300 301 302 304 305 306 307 306 306 306 305 305 305 304 304 306 307 307 305 306 306 306 305 304 302 301 300 300 299 299 298 298 297 296 296 295 294 293 293 292 292 292
295 295 295 295 295 296 295 296 296 296 296 296 296 296 296 296 296 296 296 296 296 296 296 296 296 296 296 296 296 296 296 297 297 297 297 297 297 297 298 298 298 298 299 299 299 300 301 302 303 303 303 304 304 303 303 304 305 305 306 306 306 306 306 306 304 302 301 300 300 299 299 298 298 297 297 296 295 294 293 293 292 292 291 291 291
294 294 294 294 295 294 295 295 295 296 296 296 296 296 296 296 296 296 296 296 296 296 296 296 296 296 296 296 296 296 296 296 296 297 297 297 297 297 297 297 298 298 298 298 299 299 299 300 301 301 302 303 303 302 302 304 305 305 305 305 305 305 304 303 301 300 300 299 299 299 298 297 297 297 296 295 294 293 292 292 291 291 291 291 291
294 293 293 294 294 294 294 295 295 296 296 295 295 295 295 295 295 295 295 295 295 295 296 296 296 296 296 296 296 296 296 296 296 296 296 296 296 296 296 297 297 298 298 299 299 299 299 300 300 301 301 302 302 302 303 304 304 305 304 304 304 303 302 301 301 300 299 299 299 299 298 298 297 296 295 293 292 292 291 291 290 290 291 291 291
294 294 293 293 293 293 294 295 295 295 295 295 295 295 295 295 295 295 295 295 295 295 295 295 295 295 295 295 295 295 295 296 295 296 296 296 296 295 296 296 297 298 298 299 299 299 299 299 300 300 301 303 302 302 302 303 304 304 304 303 303 302 301 301 300 300 300 300 299 299 299 298 297 295 294 292 292 291 291 290 290 290 290 290 291
294 294 293 293 293 293 294 294 295 295 295 295 295 295 295 295 295 295 296 296 295 295 295 295 295 296 295 295 295 295 295 296 296 296 295 295 295 295 296 296 297 298 298 298 299 299 299 299 299 299 300 302 302 301 301 302 303 303 303 302 301 301 301 300 300 300 300 300 299 299 299 297 296 294 293 292 291 291 290 290 291 290 290 290 291
294 294 293 293 292 293 293 294 294 295 295 295 295 295 295 295 295 295 295 295 295 295 296 296 296 296 296 296 295 295 295 295 295 295 295 295 296 296 296 297 297 298 298 298 298 298 298 299 299 298 299 300 301 301 300 301 301 302 301 301 300 300 300 300 300 300 300 300 299 299 297 296 294 293 292 291 291 291 291 291 291 290 290 290 291
294 294 293 293 292 292 293 294 294 295 295 295 295 294 295 295 295 295 295 295 295 295 296 296 296 296 296 296 295 295 295 295 295 295 295 296 296 296 297 297 298 298 298 298 299 299 299 298 298 298 298 299 300 301 301 301 301 301 300 300 300 299 299 300 299 299 299 299 298 297 295 294 293 292 292 291 291 291 291 291 290 290 290 290 291
294 294 293 293 293 293 293 294 294 294 295 294 294 294 295 295 295 295 295 295 295 295 296 296 296 296 295 295 295 295 295 295 295 296 296 296 296 297 297 298 298 298 299 299 299 299 298 298 298 298 298 298 299 300 301 300 300 300 300 300 299 299 299 299 299 298 297 297 296 295 294 293 292 292 291 291 291 291 291 290 290 289 290 290 290
294 294 293 293 293 293 293 294 294 294 294 294 294 294 295 295 296 296 296 295 295 295 295 295 295 295 295 296 296 296 296 296 296 296 296 297 297 297 297 298 298 298 298 298 298 298 298 298 298 299 299 298 299 300 300 300 299 299 299 299 299 299 299 298 297 296 296 295 294 293 292 292 292 291 291 291 291 290 290 290 289 289 289 290 290
295 294 294 293 293 293 294 294 294 294 294 294 294 295 295 296 296 296 296 296 296 295 295 295 296 296 296 296 296 296 297 297 297 297 297 297 297 297 298 298 298 298 298 298 298 298 298 298 298 299 298 298 298 299 299 300 300 299 298 298 299 298 298 297 296 295 294 294 293 292 292 292 291 291 291 291 290 290 290 289 289 289 289 289 289
295 295 294 293 293 294 294 294 294 294 294 294 295 295 296 296 296 296 296 296 296 296 296 295 296 296 296 296 297 297 297 297 297 297 297 297 297 297 297 297 297 297 297 297 297 297 297 298 298 298 298 298 298 298 298 299 299 299 299 298 298 297 296 296 295 294 294 293 292 292 291 291 291 291 291 290 290 289 289 289 289 289 289 289 289
295 295 295 293 293 294 294 294 294 294 294 294 294 295 295 296 296 296 296 296 296 295 295 295 295 295 296 297 297 297 297 297 297 297 297 297 297 297 297 296 296 297 297 297 297 297 297 297 297 297 297 297 298 297 297 298 299 299 299 298 297 296 295 294 294 294 293 293 292 291 291 291 291 291 290 290 289 289 289 288 289 289 289 289 290
295 295 295 294 293 293 294 294 294 294 294 294 294 294 295 295 295 296 296 295 295 295 295 294 294 295 296 296 297 297 297 297 297 297 297 297 296 296 296 296 296 296 297 297 297 297 297 297 297 297 296 297 297 297 297 297 297 297 297 296 295 294 294 294 293 293 292 292 291 291 291 291 291 290 289 289 289 289 288 289 289 288 289 289 290
295 295 295 294 293 292 293 294 294 294 294 294 293 293 294 294 294 295 295 295 295 294 294 294 294 295 295 296 296 296 296 296 297 297 296 296 296 296 296 297 297 297 297 296 296 297 297 297 296 296 296 296 296 296 296 295 295 295 295 294 294 294 294 294 293 292 291 291 291 291 291 290 290 289 288 288 288 288 288 289 289 289 289 290 290
295 295 295 294 293 292 292 294 294 294 294 294 294 294 294 294 294 294 294 294 294 294 294 294 294 295 295 295 296 296 296 296 296 296 296 296 296 296 296 296 296 296 296 296 296 296 296 296 296 296 295 295 295 295 295 295 294 294 294 294 294 294 293 293 292 292 292 292 292 291 290 289 288 288 288 288 288 288 289 289 289 289 289 289 289
295 295 295 295 293 291 291 292 293 294 294 294 294 294 294 294 294 294 294 294 294 293 293 293 294 295 295 295 295 296 296 296 296 296 296 297 297 296 296 296 296 296 295 295 296 296 296 295 295 295 294 294 294 294 294 294 293 293 293 293 293 293 292 292 292 292 291 291 290 289 288 288 287 287 288 288 288 288 289 289 289 289 289 289 289
295 295 295 295 293 291 290 290 291 293 293 294 294 294 294 294 294 293 293 293 293 293 293 293 294 294 294 294 295 295 295 295 296 296 296 296 296 296 296 295 295 295 295 295 295 295 295 294 294 294 293 293 293 292 292 292 292 292 292 291 291 291 291 290 290 290 289 289 288 287 287 287 287 287 288 288 288 288 288 288 288 288 288 288 289
295 295 295 294 294 292 291 290 290 291 292 293 293 293 293 293 293 293 293 293 292 292 292 293 293 294 294 294 294 294 294 294 294 295 295 295 295 295 295 295 295 295 295 294 294 294 294 293 293 293 293 292 292 291 291 291 290 290 290 290 289 289 289 289 289 288 287 287 286 286 287 287 287 287 288 287 288 288 288 288 289 288 288 288 289
294 294 294 294 294 293 292 291 290 290 290 291 292 293 293 293 293 293 293 293 292 292 292 292 292 293 293 293 294 294 294 294 294 294 294 294 294 294 294 294 294 294 294 293 293 293 293 292 292 292 292 292 291 290 290 290 289 289 289 288 288 289 289 289 289 289 288 287 286 286 287 287 287 288 288 288 288 288 288 288 289 288 288 288 289
294 294 294 294 294 294 293 292 292 290 289 289 290 291 292 293 293 293 293 293 292 292 291 291 292 292 292 292 293 293 294 294 293 293 293 293 293 293 293 293 293 293 292 292 292 292 292 292 292 292 292 292 290 289 289 289 288 288 288 288 289 289 289 290 290 290 290 288 287 287 287 287 288 288 288 289 288 288 288 288 288 288 287 288 288
294 294 294 294 294 294 293 293 292 292 290 289 288 289 290 292 292 293 293 293 293 292 292 292 292 292 292 292 293 293 293 293 293 293 293 293 293 292 292 292 292 292 292 292 292 292 292 292 292 291 291 291 290 290 289 289 288 288 288 288 289 289 290 290 290 290 290 290 289 288 288 288 288 289 289 289 289 289 288 288 287 288 288 288 288
294 294 294 294 293 293 293 293 293 292 292 290 289 288 288 289 291 292 292 292 293 293 292 292 292 292 292 292 292 292 292 292 292 292 292 292 292 292 291 291 291 291 291 291 291 291 290 290 290 291 291 291 291 290 289 289 288 288 288 289 289 290 290 290 290 290 290 290 290 289 289 289 289 289 289 289 289 289 289 288 288 288 288 288 288
Wind_Speed
21 20 18 16 16 16 15 14 12 10 10 11 11 11 12 10 10 10 10 8 7 6 5 5 6 6 6 6 6 5 6 7 7 7 8 9 8 7 6 6 4 3 5 5 6 7 8 9 10 10 10 11 11 10 9 8 7 6 5 5 4 4 4 2 1 5 10 12 11 10 10 9 8 8 8 8 9 11 11 11 9 7 4 3 3
21 20 19 18 16 16 15 15 12 11 11 11 12 13 13 11 10 10 10 9 7 7 7 6 7 8 8 7 7 7 7 7 7 8 9 9 8 7 6 6 5 4 4 5 6 6 7 8 9 9 9 9 9 8 7 7 7 6 6 6 5 6 7 6 4 3 7 10 11 11 11 10 8 7 8 8 9 10 10 9 6 5 4 2 1
20 21 21 19 17 17 17 16 14 12 11 12 13 14 13 11 10 9 9 9 8 8 8 7 7 8 9 8 8 8 8 8 8 9 10 10 8 7 6 7 7 7 5 4 4 5 5 6 7 7 6 6 6 6 6 6 6 7 7 7 7 8 9 10 8 6 5 8 10 11 11 10 9 8 8 9 9 9 9 7 6 5 4 3 3
21 22 23 21 19 19 19 18 15 13 12 13 15 14 12 10 9 8 8 8 8 9 10 9 9 9 9 9 9 10 11 10 10 11 11 10 9 8 7 7 7 8 7 5 5 4 4 4 5 5 5 5 5 6 7 7 7 8 9 10 11 11 12 13 13 10 7 7 9 11 12 11 10 10 10 10 10 9 8 7 6 5 4 5 6
21 21 22 23 22 21 20 19 16 14 14 15 15 14 12 10 8 7 7 6 7 8 10 10 10 10 10 10 11 11 12 12 12 12 12 11 11 10 9 8 7 7 7 7 7 7 6 6 5 5 5 5 6 7 8 9 9 10 9 10 11 12 14 16 16 14 10 7 8 10 12 12 12 11 11 11 10 9 9 8 7 6 6 7 8
19 19 21 22 22 22 21 19 17 15 16 16 15 13 12 11 10 8 6 4 5 7 10 11 11 10 10 11 12 12 13 14 13 13 13 12 12 11 10 9 8 7 6 6 7 7 8 8 7 7 7 7 7 7 8 9 9 10 10 10 10 11 13 16 17 17 13 9 8 10 12 13 14 13 12 12 11 10 9 9 9 8 9 10 11
19 19 20 21 21 22 21 19 18 18 18 17 15 14 14 13 12 10 6 3 2 6 10 12 12 12 11 11 12 13 14 14 14 14 14 13 12 11 11 10 9 8 7 7 7 7 7 7 8 8 8 8 8 8 8 8 8 9 10 10 10 11 11 12 14 16 14 11 10 10 12 14 15 15 14 13 13 13 12 12 11 11 11 12 13
21 21 21 21 21 22 22 20 19 20 21 20 18 17 17 15 13 11 6 2 2 5 9 12 12 12 12 12 13 14 15 15 15 14 13 13 12 11 10 10 9 9 8 8 8 8 8 8 8 9 9 9 9 9 10 10 10 10 10 10 10 11 11 11 12 14 15 14 12 12 13 15 16 16 16 15 15 15 15 14 14 14 13 13 14
24 24 25 25 24 24 24 22 23 24 24 23 21 19 17 15 12 10 8 5 5 6 8 11 12 12 12 12 13 13 14 15 14 14 13 12 11 11 10 10 9 9 8 9 9 8 8 8 9 9 9 9 10 10 11 12 13 12 12 12 11 11 12 12 13 14 15 15 15 14 14 16 17 17 17 16 15 15 14 15 15 16 16 15 15
23 23 24 24 25 25 25 25 25 25 24 23 21 18 17 17 13 10 14 14 10 8 8 10 11 12 12 11 12 12 13 13 13 13 13 12 11 11 10 10 9 8 8 9 9 9 9 9 9 9 9 10 12 13 13 13 14 14 13 13 13 13 14 14 15 16 17 17 17 17 17 17 18 18 18 17 16 15 15 15 16 17 17 17 16
17 18 17 19 22 24 25 26 25 23 22 21 20 19 19 20 19 18 20 18 12 9 10 11 12 13 12 12 12 11 12 11 11 11 11 11 11 11 10 10 9 8 8 9 10 10 9 9 10 11 12 13 14 14 14 14 14 14 14 14 14 14 15 17 18 19 20 19 19 20 20 19 19 19 19 19 18 17 16 16 16 17 18 17 17
11 12 12 16 20 20 20 23 23 22 22 22 20 20 20 21 22 22 20 16 12 11 11 12 13 13 13 13 13 12 12 11 10 10 9 9 9 9 10 10 10 10 10 10 11 11 11 11 13 14 15 16 16 16 16 16 16 16 16 16 16 16 16 17 19 20 21 21 21 21 21 21 21 21 21 20 20 19 19 18 17 18 18 17 17
7 7 7 10 14 15 17 20 19 18 20 20 19 18 16 17 21 21 17 14 13 13 13 14 16 15 14 14 14 14 13 12 12 11 11 11 11 12 12 12 13 13 14 14 14 14 14 14 15 16 18 19 19 19 19 19 19 19 19 19 19 19 19 19 20 21 22 22 21 22 22 21 21 21 22 22 22 21 20 19 18 18 18 18 18
10 8 7 6 7 10 15 18 17 16 17 17 17 16 14 16 20 18 15 14 15 15 15 16 17 17 16 16 16 16 16 15 14 15 15 15 16 16 17 16 16 17 17 17 17 17 17 17 17 19 20 22 22 23 22 22 22 22 23 22 22 22 23 23 23 23 23 24 24 23 22 21 20 21 21 22 21 20 19 18 17 18 18 18 18
12 11 10 10 9 9 12 15 15 15 16 16 16 16 15 17 20 19 17 16 17 17 16 16 16 17 18 18 17 17 17 17 17 17 16 16 17 18 19 20 19 19 19 19 19 19 19 19 20 20 22 23 24 25 25 24 25 25 25 24 24 24 25 26 26 25 25 26 27 25 24 22 21 20 20 19 18 18 18 17 17 18 18 18 18
17 16 15 15 13 10 9 10 13 14 15 15 16 17 17 17 18 18 18 18 18 17 17 16 16 17 19 19 20 19 19 19 18 17 16 16 17 18 20 21 21 21 21 21 21 21 19 19 20 21 22 24 25 26 27 27 27 27 26 25 25 26 26 27 28 27 26 27 26 23 22 22 21 20 20 20 19 19 18 18 18 18 18 17 17
21 20 19 18 16 13 11 10 11 11 12 13 13 15 16 16 16 16 17 18 19 18 19 18 18 18 18 18 20 21 21 21 19 17 17 19 20 20 21 22 22 22 22 22 23 22 21 21 21 22 24 25 26 27 28 28 28 28 27 26 26 27 28 28 29 28 28 27 25 22 20 20 20 20 20 20 20 19 18 18 17 16 15 14 15
23 22 21 19 17 15 13 12 12 11 11 11 11 11 12 13 13 14 15 16 18 18 19 18 17 18 18 18 20 21 21 21 22 21 22 24 24 23 22 22 22 22 23 23 23 23 23 22 23 24 26 27 27 28 29 30 30 30 28 27 27 28 28 28 29 29 29 26 24 22 22 21 20 19 18 18 18 17 16 15 14 13 13 13 14
18 18 17 16 15 14 13 12 12 12 11 11 11 10 9 9 9 8 9 11 11 12 13 12 12 15 17 18 19 18 15 15 18 20 20 21 23 23 22 22 23 24 24 24 24 24 24 24 25 26 27 27 28 28 29 29 29 28 26 26 27 27 27 28 29 30 27 24 23 22 21 21 20 18 17 16 15 14 13 12 12 13 13 13 14
13 12 11 10 10 9 9 9 9 9 9 8 8 7 7 8 7 6 4 4 4 4 5 5 6 8 11 12 13 12 10 10 13 14 15 15 17 18 19 20 21 21 21 22 22 22 23 23 24 24 25 25 25 25 25 24 24 23 23 24 25 25 25 26 28 27 23 21 22 21 19 18 18 17 15 14 13 12 12 12 12 13 13 13 13
9 8 7 7 6 5 5 4 3 3 4 4 3 2 3 4 4 4 3 2 1 1 1 2 3 4 6 7 8 9 9 9 11 12 13 13 14 14 14 15 16 17 18 18 19 19 19 19 20 20 21 21 21 21 20 20 20 21 22 23 23 23 23 24 25 24 21 20 20 19 19 18 17 16 14 14 13 12 12 11 11 12 12 13 13
7 7 6 6 5 5 4 4 3 3 2 1 2 3 4 5 6 7 7 7 7 6 6 7 7 7 7 8 9 9 10 11 11 13 14 15 16 17 16 16 16 17 17 17 16 16 15 16 17 18 19 19 19 19 19 19 20 21 22 22 22 24 25 24 22 21 21 20 19 19 19 18 16 15 14 13 12 11 11 10 11 11 12 13 13
6 6 6 7 7 6 6 6 6 6 6 6 6 6 6 6 8 9 10 10 10 10 11 11 12 12 11 11 11 12 12 13 14 14 15 16 17 18 19 19 19 19 19 18 16 15 15 15 16 18 19 19 20 20 20 21 21 22 22 22 23 26 27 24 20 20 21 21 21 20 19 17 16 15 14 12 11 10 10 10 11 11 12 12 11
7 7 7 8 8 8 8 9 9 9 10 10 10 10 10 10 10 11 12 12 12 13 13 13 14 14 14 14 14 14 15 15 16 17 17 18 18 19 20 21 21 22 22 21 20 19 18 18 18 18 20 21 22 23 23 23 23 23 23 25 27 29 28 23 20 21 22 22 22 21 19 17 16 14 12 10 9 9 9 10 11 10 10 11 13
8 8 8 8 8 8 9 10 10 11 11 12 12 12 13 13 13 13 14 14 15 15 15 15 16 16 16 16 16 16 17 18 18 19 19 20 20 20 21 22 22 23 23 23 23 23 23 23 22 21 21 22 23 24 25 26 26 26 26 27 29 29 26 23 22 22 21 21 22 20 18 17 15 12 11 10 9 9 10 10 10 9 11 13 15
7 7 7 7 7 7 8 8 9 10 11 12 13 13 14 14 14 15 15 15 16 16 17 17 17 17 17 17 17 17 18 18 18 19 19 19 20 20 21 21 22 23 23 23 24 24 24 25 26 25 25 24 25 26 27 27 28 29 29 29 28 26 24 23 22 21 22 23 22 20 17 16 14 11 10 9 9 9 9 9 9 10 12 14 15
7 7 7 6 6 6 6 6 7 8 9 10 11 12 13 13 14 15 15 15 15 15 16 17 17 17 17 17 17 17 17 18 19 19 19 19 19 19 20 20 21 22 23 23 24 24 24 24 25 26 27 27 26 27 28 28 29 30 30 28 25 23 23 23 21 21 23 24 21 17 14 12 11 10 9 8 8 9 8 9 9 11 12 13 14
8 7 7 7 7 7 6 7 7 7 7 8 9 9 10 11 13 15 15 16 16 15 16 17 17 18 18 18 19 18 17 18 19 19 19 19 18 18 17 17 18 19 20 20 21 21 21 21 21 23 24 24 26 27 27 28 29 29 28 24 19 18 21 21 20 21 20 16 12 9 9 10 10 9 8 8 8 8 9 9 10 11 12 12 13
10 9 8 8 8 7 7 7 7 7 7 8 9 9 9 9 10 12 14 15 17 17 17 18 18 19 19 20 21 21 19 19 19 20 20 20 20 19 18 18 18 18 18 18 19 19 19 19 19 20 20 21 23 25 24 24 24 24 22 19 17 17 18 19 19 19 16 11 8 7 9 11 11 9 8 8 8 9 10 10 10 10 11 11 12
13 12 11 10 9 8 7 7 7 7 8 8 9 10 11 11 11 10 10 12 14 16 17 18 19 20 20 21 22 22 22 22 21 21 21 21 20 20 20 20 20 19 18 18 18 18 18 18 17 17 17 17 18 20 20 18 17 18 17 16 16 17 19 19 18 15 13 10 9 8 9 10 10 9 9 9 9 10 10 9 9 9 10 11 12
17 15 14 13 11 9 8 7 7 8 8 9 9 9 9 11 12 13 12 11 12 13 15 16 17 19 20 20 20 21 21 22 23 23 23 23 22 21 21 20 19 19 18 18 18 18 18 17 15 14 15 15 14 14 14 12 11 14 15 15 17 18 18 17 17 15 14 12 10 10 10 11 10 10 9 9 8 9 8 8 8 9 10 11 12
19 17 17 16 12 9 8 8 8 8 9 10 11 10 9 9 9 10 12 13 13 13 14 15 16 17 18 19 20 19 19 19 20 20 21 21 22 21 20 19 17 17 17 17 17 17 17 17 15 13 13 13 11 10 10 10 11 14 15 16 19 19 18 18 18 17 16 14 12 11 11 11 10 9 8 7 8 8 8 8 8 9 11 12 13
19 19 19 16 11 8 9 9 9 9 10 11 12 12 12 11 9 8 8 10 12 13 13 15 15 16 16 17 18 18 17 17 16 17 17 18 18 17 17 16 16 16 17 17 17 17 17 17 16 14 13 12 10 10 11 13 15 16 16 17 18 19 20 20 19 18 16 14 13 12 11 11 10 8 7 7 8 8 8 8 9 10 11 12 13
19 20 20 17 11 8 8 9 10 11 12 12 13 13 13 13 14 13 11 10 8 9 10 12 13 12 12 12 12 13 13 13 13 14 14 15 15 14 13 13 14 15 16 17 17 17 17 17 17 16 15 13 10 10 13 16 18 18 17 17 17 18 19 19 19 18 17 15 13 12 11 10 9 7 7 8 8 8 8 8 9 10 11 12 13
19 20 20 17 12 9 9 9 10 12 12 12 12 13 13 14 16 16 16 14 11 9 9 10 10 9 9 8 8 8 9 10 11 12 13 14 14 14 12 11 12 14 15 16 17 18 18 19 19 19 18 15 11 10 12 16 19 19 18 19 18 18 18 17 18 18 17 16 14 12 11 9 8 7 8 8 8 8 8 9 9 10 11 11 10
19 20 21 17 12 9 9 10 11 11 11 11 12 12 12 13 15 16 15 14 12 12 11 10 9 9 9 8 8 8 8 9 10 10 11 12 13 13 12 12 13 14 14 16 17 17 18 20 20 20 18 16 12 10 10 14 18 20 20 20 18 16 16 17 17 17 15 13 12 10 9 8 7 7 7 8 8 8 8 8 9 10 10 9 8
18 20 21 18 12 9 9 10 11 10 10 10 11 11 12 13 14 14 14 13 12 12 11 10 10 9 9 9 8 7 8 9 10 10 10 11 11 12 12 12 13 13 14 15 17 18 18 19 18 18 16 14 13 12 12 14 18 20 21 20 18 16 16 17 16 14 12 11 10 8 7 6 6 6 6 7 7 8 8 8 8 8 8 7 6
17 19 20 18 14 10 10 10 11 10 10 10 10 10 11 12 12 13 14 13 13 12 12 11 11 10 10 9 9 8 9 9 10 10 11 11 11 11 12 12 12 12 12 13 15 15 16 15 15 16 15 15 14 13 12 13 16 20 22 22 20 17 17 17 15 12 10 9 7 6 5 5 5 4 5 5 6 7 7 7 7 7 5 5 5
16 18 19 17 14 12 11 11 11 10 9 9 9 10 11 12 13 14 15 15 15 14 14 13 13 12 12 11 10 9 9 8 9 9 10 10 10 10 9 9 9 9 9 9 9 9 9 10 11 12 12 13 14 12 10 11 13 17 22 24 22 20 20 18 15 13 11 9 6 5 5 4 4 4 5 5 6 6 6 7 7 6 4 4 4
14 16 18 16 13 11 10 10 9 9 8 8 9 10 11 13 15 16 16 17 17 17 17 16 16 14 13 11 9 8 8 8 10 11 11 11 10 8 8 9 10 10 11 10 9 8 8 8 8 7 6 8 11 11 10 9 9 12 18 21 20 19 19 18 15 13 11 8 6 4 4 2 3 4 4 5 5 5 6 6 6 6 5 4 4
12 14 16 16 13 10 9 9 8 7 7 8 8 9 11 13 14 15 15 16 16 16 16 16 16 15 14 12 12 11 11 11 11 10 10 9 9 10 11 13 14 13 14 15 15 13 12 11 9 7 4 1 4 6 7 9 9 10 12 14 14 16 18 17 14 11 9 7 5 4 2 3 4 4 4 4 5 5 6 6 6 5 3 3 4
10 12 14 16 14 11 10 9 7 7 7 7 7 7 8 10 11 12 13 13 14 14 14 14 14 14 14 14 14 14 14 13 11 10 9 10 11 13 14 15 15 15 16 17 17 18 18 17 16 16 14 12 9 6 3 3 4 5 7 10 15 18 17 14 10 8 8 7 5 4 4 5 6 5 4 4 4 5 5 5 5 4 3 3 4
8 10 12 15 14 11 10 9 8 7 6 6 5 6 6 7 7 8 9 10 10 10 11 11 12 13 13 14 14 14 14 14 13 12 11 12 13 14 14 14 14 16 18 17 16 16 17 18 18 18 18 17 17 16 14 12 8 6 8 12 15 14 12 9 8 7 6 4 4 5 6 6 6 5 4 4 4 4 3 2 3 2 3 4 4
7 9 11 12 12 11 10 9 8 7 6 5 5 5 5 5 4 5 6 7 8 8 9 10 11 13 13 14 13 13 13 13 13 13 13 13 13 13 14 15 15 16 18 19 17 15 14 15 15 16 16 16 16 16 16 14 12 10 9 9 9 8 7 7 6 5 3 4 5 6 6 5 5 5 4 4 3 2 2 2 2 1 2 4 5
5 7 9 10 11 10 9 9 8 7 7 6 6 5 4 4 4 4 5 6 7 8 9 10 11 12 13 14 14 13 13 12 12 12 12 12 12 12 13 14 14 14 15 16 15 14 13 12 13 13 14 14 14 14 13 12 12 10 9 8 6 5 5 3 2 2 4 5 5 5 5 4 4 4 4 3 3 4 5 3 2 2 2 4 6
4 6 7 8 9 9 9 8 8 7 6 6 6 6 6 5 4 4 5 6 7 9 10 11 12 13 14 14 15 15 14 13 12 11 11 10 10 10 10 10 11 11 11 11 11 10 10 10 10 11 11 11 11 11 10 9 9 8 7 7 6 5 3 2 1 2 3 4 4 4 3 3 3 3 3 3 4 6 6 4 2 2 2 4 6
4 5 6 6 7 8 8 9 9 7 5 4 5 6 7 6 6 6 6 7 8 9 11 12 13 14 14 15 16 16 16 15 14 13 12 11 10 9 8 7 7 8 9 8 7 7 7 8 8 8 9 9 9 8 8 7 7 6 6 6 6 5 4 4 3 3 2 1 2 2 2 2 2 2 1 2 3 6 7 5 3 3 3 4 4
5 5 6 6 6 6 7 8 9 8 6 4 4 4 5 6 6 6 6 6 7 8 10 11 12 12 13 13 14 14 14 14 14 13 13 12 11 9 8 7 7 7 7 7 6 6 6 7 7 7 7 6 6 6 5 5 5 5 5 5 5 4 4 4 5 5 4 2 1 1 1 2 2 2 2 3 2 1 5 6 5 3 4 4 3
6 6 6 6 5 5 6 6 7 8 7 6 5 4 3 3 4 5 5 5 6 7 9 9 9 8 9 9 10 9 9 9 9 9 9 9 8 7 6 5 5 5 5 5 4 4 5 5 5 5 5 5 4 4 4 4 4 4 3 3 3 3 3 3 4 5 6 5 4 4 4 4 4 3 4 5 5 3 0 2 3 3 5 5 3
6 6 6 6 5 5 6 6 6 7 7 7 6 5 3 2 1 1 3 3 4 5 6 7 6 5 5 5 6 6 6 6 7 7 7 7 7 6 6 5 4 4 3 3 3 3 4 4 3 3 3 3 4 4 3 3 3 2 2 2 2 1 2 2 3 4 6 6 5 6 5 4 4 4 5 5 5 4 4 2 1 3 5 5 4
7 7 6 5 5 5 6 6 6 7 7 7 7 6 5 3 2 2 2 1 1 3 4 5 6 6 5 5 5 5 4 5 5 6 6 7 7 7 7 7 6 5 5 4 3 3 3 3 3 3 3 3 4 4 4 3 2 1 1 1 1 1 1 1 2 3 4 4 4 4 3 3 3 3 4 4 4 4 4 3 2 2 3 4 4
Wind_Direction
202 201 195 190 194 197 199 200 197 201 209 207 201 188 173 169 174 178 183 186 188 194 192 179 171 168 166 166 160 151 152 159 166 164 154 149 151 158 155 147 151 153 137 125 120 132 149 160 163 162 160 157 151 150 159 170 181 198 221 236 252 244 213 204 130 168 174 175 177 179 176 175 176 173 169 169 172 173 169 163 161 161 153 125 81
204 203 200 197 198 201 203 201 198 204 211 208 197 183 171 170 172 173 177 180 182 192 193 180 171 168 165 168 168 166 164 160 157 151 146 148 154 159 162 158 165 170 145 133 128 126 139 157 162 160 157 157 157 163 177 189 197 209 230 244 257 262 249 235 226 206 193 186 183 183 182 178 173 170 165 164 169 177 180 183 191 202 213 224 285
206 206 208 207 203 201 203 202 200 205 209 203 189 178 171 171 168 165 168 174 179 188 188 182 176 170 169 174 173 169 169 163 156 149 144 146 150 154 158 160 171 184 180 157 144 133 136 154 165 171 173 174 177 187 196 206 221 234 244 251 257 264 262 250 240 239 228 209 199 194 189 183 173 164 164 167 171 178 183 190 203 215 227 251 279
205 211 215 212 203 200 202 202 202 206 204 192 182 178 175 172 167 158 155 165 180 190 188 181 178 174 170 174 174 168 166 163 158 154 148 146 146 145 145 148 162 182 195 200 194 180 170 167 170 175 182 191 197 205 212 223 241 253 258 261 262 262 262 256 246 240 244 239 221 204 194 190 183 173 173 177 180 183 188 194 203 218 238 261 276
204 212 213 207 201 200 201 202 204 205 196 182 178 181 180 177 175 158 141 153 181 195 195 186 179 178 175 175 174 169 166 165 163 159 154 152 151 147 145 147 155 172 189 202 209 208 203 201 201 199 201 211 217 223 232 239 247 255 264 272 275 272 265 260 252 242 242 255 248 223 205 198 195 190 187 189 191 195 203 212 220 231 247 258 267
200 206 206 203 203 201 199 202 204 197 186 179 179 184 185 185 184 165 132 136 181 201 206 198 184 182 188 185 180 176 172 170 168 165 163 162 161 160 160 161 163 168 178 190 200 209 213 216 224 230 235 239 239 241 246 251 256 260 267 274 281 281 272 263 255 247 243 249 250 239 224 212 205 204 203 204 208 211 217 225 232 242 253 261 265
199 199 202 206 207 204 202 205 203 194 188 185 185 190 192 190 188 179 149 121 197 217 214 209 197 188 196 199 191 186 182 178 177 174 173 174 174 175 177 177 178 181 186 193 201 211 218 223 230 237 245 251 254 257 261 265 269 270 271 274 276 277 275 266 253 243 238 236 235 236 230 218 210 209 212 216 221 225 227 229 234 242 250 257 262
199 198 203 208 209 208 208 208 202 198 196 192 189 194 197 192 186 183 170 122 304 253 225 220 214 201 201 207 204 197 192 190 189 186 187 188 188 190 192 193 197 199 203 209 217 225 230 235 240 244 253 263 268 273 277 278 279 276 274 274 273 270 268 262 244 232 231 234 235 233 228 222 217 216 218 221 226 231 233 235 238 243 249 255 258
197 201 204 205 208 213 216 214 206 201 200 195 192 195 199 195 183 178 189 214 276 276 239 228 226 215 209 212 214 211 206 203 203 202 203 204 204 205 207 211 216 219 223 227 235 247 252 250 249 250 255 262 267 272 276 279 281 280 276 272 270 268 263 252 238 231 234 240 242 238 230 225 224 225 228 233 236 237 239 241 245 247 251 257 258
198 204 206 205 208 213 217 216 208 202 203 205 203 202 200 196 191 197 213 224 251 268 243 230 226 219 217 216 219 222 220 218 219 219 220 223 224 225 227 235 241 244 248 250 253 263 268 262 256 253 256 259 263 268 273 275 277 278 277 273 268 265 260 252 244 241 244 249 250 245 238 234 234 233 236 240 243 244 244 246 248 249 251 256 257
201 207 212 214 214 211 210 211 206 201 206 215 220 220 220 218 218 223 225 227 241 252 239 230 223 219 219 219 220 223 224 224 227 229 232 233 234 236 240 246 252 258 264 262 257 258 262 263 263 264 267 269 272 274 276 277 279 280 280 277 271 264 259 255 253 250 250 252 252 248 245 243 242 240 241 242 244 246 249 250 250 250 252 255 254
203 208 215 219 219 213 207 206 203 200 205 218 230 236 239 234 224 220 222 228 238 245 240 234 229 225 225 227 228 226 224 224 225 227 233 237 238 241 245 249 255 260 266 266 260 256 258 262 266 269 273 276 278 279 279 281 284 285 284 282 277 270 262 257 255 254 253 253 252 250 250 249 247 246 248 249 248 248 250 251 251 251 253 254 255
164 174 183 200 211 212 206 204 203 201 205 216 228 235 235 223 211 210 222 235 241 244 245 240 234 229 230 235 238 236 233 235 237 238 241 246 250 252 255 259 262 266 271 270 267 266 266 267 268 272 275 278 279 280 280 282 284 284 284 282 278 274 268 262 259 257 256 254 250 248 247 247 248 250 253 254 252 250 250 250 249 250 252 254 257
127 128 131 142 163 182 193 199 202 204 205 210 218 223 221 212 209 216 231 241 242 244 245 243 236 231 233 239 241 240 239 243 247 249 248 248 253 257 260 263 264 267 270 269 267 269 272 272 272 273 275 277 278 277 276 276 277 279 280 278 276 273 270 267 264 261 258 255 253 250 247 246 246 248 250 251 250 247 245 244 244 246 249 253 259
119 119 122 119 122 148 178 193 200 204 208 212 214 216 215 213 215 222 231 237 241 242 241 240 237 235 238 243 244 242 241 243 247 248 244 243 247 251 255 260 262 264 265 265 267 270 271 271 271 272 273 274 275 274 273 272 274 276 276 275 272 270 267 265 264 262 259 256 253 250 247 245 241 236 235 237 238 239 239 240 243 248 253 259 268
108 109 112 113 119 132 157 185 197 202 207 211 214 215 215 215 218 222 226 231 236 236 234 235 235 236 239 242 244 244 242 240 244 245 242 242 245 247 251 255 257 258 260 265 270 272 270 269 270 271 272 272 272 272 274 276 277 277 276 274 271 267 264 262 261 260 257 256 254 247 241 241 241 239 237 237 239 241 243 245 250 256 262 271 280
99 100 102 105 112 120 130 153 169 179 190 199 205 211 215 218 221 222 224 229 232 232 233 233 231 234 240 243 246 246 243 242 245 248 248 250 252 251 253 255 255 255 259 265 270 270 268 267 267 269 270 271 273 274 275 278 280 281 280 277 272 267 262 259 258 256 255 254 254 248 243 243 246 246 245 242 241 243 248 252 258 263 270 278 284
97 98 98 99 101 105 110 120 130 142 156 164 171 186 200 209 216 219 223 229 232 234 237 238 237 240 246 253 257 256 251 249 250 251 251 253 254 253 254 257 258 259 262 265 266 268 268 268 268 269 271 273 274 275 277 279 280 282 282 278 272 267 263 259 256 254 252 250 249 247 245 246 246 245 244 242 242 245 251 255 260 267 273 278 284
93 94 97 100 103 105 106 109 115 121 126 130 135 145 156 164 176 191 205 217 223 226 232 236 238 239 241 248 254 256 252 245 246 249 250 250 250 251 255 260 262 264 266 267 267 267 268 267 268 270 272 274 275 275 277 278 280 281 280 275 272 268 263 259 256 252 249 249 249 246 243 243 244 243 242 242 242 244 248 254 261 268 275 281 288
80 81 85 91 98 103 107 110 115 116 116 119 125 134 141 143 144 147 157 177 192 206 218 220 221 225 229 234 242 248 245 234 235 246 254 254 254 255 259 262 264 265 266 267 268 268 268 269 270 271 273 275 277 278 279 280 281 281 279 275 273 269 263 259 258 254 248 248 249 244 238 236 237 237 234 234 236 242 249 258 267 275 283 289 294
68 67 66 66 68 71 76 83 91 100 114 135 148 162 183 190 193 192 195 202 192 198 244 260 247 239 240 244 250 256 257 251 246 250 257 263 265 265 266 268 270 270 270 271 273 275 275 275 275 273 273 276 279 280 280 281 282 281 280 278 275 270 263 258 257 254 247 243 241 235 231 230 227 225 226 230 237 246 255 266 275 283 290 293 293
45 42 37 31 27 24 21 15 6 2 355 295 269 262 249 246 249 252 256 261 262 264 270 275 276 275 272 270 271 272 272 270 267 262 261 265 269 272 276 278 278 278 277 277 277 278 277 276 273 272 273 275 279 280 280 279 277 277 278 275 269 266 260 252 247 246 241 235 230 226 224 223 222 222 226 233 241 251 261 273 282 287 289 289 289
3 360 358 353 351 346 341 337 332 326 321 313 306 298 286 276 272 269 272 274 273 273 273 271 271 274 277 279 280 280 279 277 276 274 271 269 270 272 275 277 279 280 279 278 275 271 269 269 268 269 271 273 276 278 278 277 276 276 276 271 263 261 257 245 234 236 234 226 224 224 223 223 225 227 231 236 245 257 268 276 281 282 284 288 296
333 330 327 325 324 320 318 317 315 312 310 307 306 304 300 295 290 285 284 283 281 281 281 278 276 275 276 278 281 282 283 281 279 279 278 276 275 275 275 276 277 278 279 278 275 270 267 266 265 265 268 270 272 274 274 274 274 273 273 268 261 259 257 244 229 229 230 227 226 226 225 226 227 229 233 238 247 258 266 272 277 283 293 305 314
340 335 329 324 320 314 310 307 304 302 300 297 296 295 294 293 292 290 289 288 287 286 286 284 283 282 279 279 280 282 283 283 282 281 280 279 278 276 276 276 276 275 276 276 274 272 269 267 265 263 264 265 269 272 273 274 272 270 270 266 260 257 254 245 235 232 232 232 230 227 225 225 223 224 231 237 246 257 265 274 285 299 312 318 319
358 353 347 343 337 328 320 313 307 301 296 293 291 289 288 287 287 287 288 288 287 287 287 286 285 284 283 282 280 279 280 280 280 281 281 281 282 282 281 281 281 280 279 278 276 274 271 267 266 264 263 263 266 270 273 275 274 272 270 268 267 264 253 237 233 240 242 237 230 225 223 223 220 222 230 237 247 260 270 282 295 308 316 318 319
21 15 10 4 356 348 340 331 323 315 307 301 297 293 291 289 287 285 284 283 283 283 284 284 284 283 283 282 281 280 278 278 279 280 281 282 284 286 287 288 287 286 285 284 284 281 277 274 271 268 266 264 266 271 273 273 272 272 270 269 270 267 251 233 229 239 240 232 223 218 221 226 227 228 233 242 255 267 277 288 301 311 315 318 322
27 20 14 7 357 351 348 343 339 334 328 321 312 304 298 294 291 289 286 284 283 282 283 284 285 286 286 285 283 282 282 282 283 283 285 286 288 289 291 293 293 292 292 294 295 293 291 288 285 282 279 276 274 275 277 275 273 271 269 266 262 253 242 232 226 225 224 221 218 220 230 235 234 234 242 252 264 275 286 299 308 312 314 317 321
24 17 11 3 353 348 346 343 343 345 345 342 335 327 320 314 307 301 296 292 290 288 287 287 287 288 288 289 289 289 288 288 289 289 291 293 294 295 296 298 299 299 300 301 302 302 302 302 301 300 300 296 288 282 281 280 275 267 261 257 250 234 220 212 209 209 209 213 222 231 238 238 236 240 252 264 275 285 295 303 307 309 312 315 316
26 22 16 9 3 0 1 1 1 1 0 359 354 346 339 334 330 324 314 305 299 295 293 293 292 291 290 290 290 292 293 294 294 293 294 294 295 297 298 299 300 302 303 303 302 303 305 308 311 310 310 306 296 285 283 284 275 261 250 241 231 215 197 189 191 197 200 203 208 217 230 236 239 249 261 271 282 289 294 298 302 305 309 311 313
26 24 17 10 8 11 19 25 25 20 13 6 1 355 346 338 333 330 327 321 312 306 303 301 298 296 295 295 295 295 296 296 295 295 295 294 295 295 296 298 301 302 302 300 300 301 304 307 311 312 309 307 300 290 291 292 271 251 239 221 204 194 188 189 195 198 198 198 202 210 219 228 240 255 267 277 284 286 287 293 300 304 306 311 316
24 24 16 8 11 25 36 37 34 26 14 6 3 360 357 351 341 332 328 324 319 314 308 302 299 299 300 302 303 303 303 301 300 300 300 300 299 296 293 292 292 293 294 295 297 300 302 303 304 303 302 305 302 287 278 272 257 245 234 216 203 197 198 204 207 205 204 205 207 210 216 227 239 252 264 272 273 274 280 288 296 303 310 316 320
25 23 16 10 18 42 46 35 29 21 11 7 7 5 1 0 359 356 347 334 325 320 314 308 308 309 308 306 306 308 309 311 311 312 312 311 310 307 301 294 288 284 284 287 290 293 294 295 296 293 290 296 299 281 260 251 248 245 237 223 211 203 202 205 207 207 208 209 209 214 223 230 235 244 256 262 262 265 274 283 293 303 313 319 322
25 23 17 13 20 40 41 29 23 18 11 9 10 9 7 7 5 3 1 355 343 335 328 323 325 328 325 318 317 318 320 324 327 327 326 326 327 324 316 305 294 287 284 283 286 289 291 291 292 290 286 286 288 277 258 249 248 246 234 217 207 206 207 209 210 212 213 214 216 221 225 226 228 237 245 249 252 259 271 285 297 308 316 321 323
25 23 17 13 15 27 31 26 23 19 15 12 12 13 15 15 10 5 4 3 4 4 358 352 355 1 358 354 355 354 351 350 348 342 336 335 336 334 327 315 303 295 290 287 286 288 289 291 292 293 289 283 277 271 258 249 249 243 224 207 206 213 215 214 213 214 215 216 217 217 216 216 221 228 232 239 250 262 275 289 302 312 318 323 324
25 23 19 16 18 23 26 27 26 22 19 17 18 20 20 16 12 9 9 10 13 18 22 24 26 30 34 35 30 22 15 9 2 352 342 336 334 333 331 323 313 304 296 292 291 291 293 294 294 293 289 281 271 266 255 246 245 238 219 206 207 214 215 216 217 214 210 206 204 203 206 213 219 220 226 239 254 266 280 293 306 317 323 324 323
27 24 20 19 22 27 30 29 26 21 19 19 22 25 24 20 16 14 15 18 22 27 33 38 41 41 43 44 38 27 14 6 0 351 340 331 328 332 335 334 329 319 306 300 298 297 297 297 295 289 283 274 265 260 254 246 243 235 220 208 207 215 224 228 223 211 199 194 191 193 203 211 211 217 232 251 266 277 288 301 314 324 327 325 329
28 26 22 21 25 35 41 34 25 20 20 24 30 34 34 31 30 28 27 28 30 32 36 40 42 41 40 38 33 21 11 5 359 349 340 335 334 339 343 342 338 330 320 312 308 303 301 299 295 286 275 265 261 263 259 245 235 228 220 215 215 224 235 235 221 198 186 186 188 192 193 191 197 221 248 269 281 288 299 314 324 330 331 333 343
26 24 22 22 29 40 43 36 26 25 31 40 46 50 51 50 49 47 46 46 46 47 48 48 46 43 39 34 28 21 15 13 10 7 8 10 6 1 359 358 357 355 350 341 333 327 323 319 312 298 278 261 259 264 260 244 231 225 224 225 227 229 229 220 202 184 181 186 190 194 193 191 211 247 271 286 295 303 314 323 327 333 342 348 351
21 21 20 21 28 36 37 30 25 29 44 58 61 63 64 63 60 59 60 60 60 60 58 55 50 46 40 33 28 27 26 25 26 31 36 38 36 36 38 38 38 37 31 23 18 12 2 353 344 330 293 263 260 262 257 247 234 225 227 232 234 228 216 202 188 183 186 185 179 183 196 220 267 287 296 299 304 314 322 322 330 349 1 359 3
17 17 17 17 21 28 30 25 23 32 50 64 68 69 69 67 64 63 64 65 63 60 57 54 50 46 42 42 46 50 51 50 49 50 52 55 57 59 55 49 45 41 36 33 33 34 33 31 32 36 39 328 275 260 245 234 226 225 231 231 219 203 194 189 184 184 182 172 168 187 233 286 300 302 305 305 310 320 323 326 340 360 1 349 2
18 16 14 14 18 28 35 33 30 38 51 59 63 67 69 67 65 65 65 64 60 54 49 49 50 48 48 52 56 58 59 60 61 62 64 63 59 54 50 48 43 39 38 41 44 45 47 52 57 62 64 62 61 66 88 159 196 212 209 191 181 181 184 185 184 178 169 167 182 224 277 297 299 300 302 304 309 315 322 335 350 360 2 5 14
19 16 13 12 15 27 40 43 42 44 49 52 56 60 61 60 62 65 62 59 53 45 42 45 49 51 54 57 59 60 61 61 63 66 67 63 56 50 49 49 46 43 45 50 51 46 45 50 57 61 62 62 64 67 71 77 88 116 147 159 166 174 178 177 172 167 168 189 227 266 287 292 293 297 295 294 304 313 317 334 347 360 16 17 18
13 11 11 10 13 25 38 43 44 45 45 43 45 49 50 51 58 65 64 59 51 44 44 52 57 59 60 62 64 65 65 63 61 61 61 59 57 55 55 55 55 53 52 54 56 53 51 54 59 62 63 64 66 69 74 81 89 102 121 136 149 158 158 155 158 172 205 248 270 285 291 289 289 290 281 282 294 279 236 259 313 348 9 1 7
360 359 2 5 11 23 35 40 40 41 41 39 39 40 40 42 50 60 65 64 54 48 52 61 66 65 64 65 67 68 68 65 61 58 59 62 65 64 59 57 58 57 54 54 60 65 66 67 67 67 66 67 69 72 79 84 87 90 97 104 113 124 130 139 175 232 264 277 284 289 287 282 281 274 264 269 268 225 210 233 306 346 11 8 18
332 337 345 354 4 18 32 40 41 38 35 38 43 45 43 43 48 56 64 66 61 58 62 69 72 69 65 66 67 66 65 64 61 59 61 65 67 66 62 59 56 51 46 49 60 70 74 75 73 70 69 69 70 72 75 78 78 77 77 78 83 89 86 71 354 300 289 278 273 272 265 259 260 251 243 251 246 222 214 231 309 349 17 22 23
295 311 317 328 346 4 21 34 40 39 33 33 39 42 44 47 52 56 61 68 72 72 74 76 76 71 65 62 61 60 59 60 60 61 63 65 65 65 64 57 45 33 28 33 45 59 67 71 70 65 62 62 62 62 62 60 60 61 60 61 64 67 61 54 44 23 346 279 259 253 236 226 218 212 233 274 256 226 217 219 256 327 360 19 23
266 285 290 295 316 341 360 19 32 35 34 30 25 25 35 46 51 52 58 72 86 92 91 86 80 74 67 60 55 50 48 50 53 55 57 59 61 62 58 47 36 28 24 24 29 37 44 48 45 41 42 45 50 53 53 49 48 53 57 61 65 65 60 57 54 51 51 56 70 131 153 148 132 127 97 47 37 218 217 220 239 304 353 12 12
247 260 264 267 286 316 336 355 15 24 27 28 22 8 7 30 43 47 57 74 93 103 102 96 89 82 74 66 57 51 48 48 49 52 55 55 55 55 48 35 28 27 24 19 17 17 17 15 13 16 23 32 40 44 46 44 43 44 50 60 68 72 70 62 52 50 53 60 73 89 97 95 88 78 56 45 46 42 348 235 254 330 19 35 25
234 246 252 256 268 293 316 334 350 2 9 15 16 9 351 324 332 31 55 75 99 111 114 116 117 110 94 83 76 70 69 69 71 74 75 71 65 60 52 40 29 17 6 358 354 356 358 1 7 18 25 25 22 19 17 19 25 32 47 64 68 70 70 57 44 43 48 56 65 74 77 72 59 41 29 26 24 17 16 19 360 7 31 39 29
232 243 251 256 263 279 297 313 326 336 344 352 359 360 350 323 264 233 226 209 168 157 151 151 152 150 143 134 120 101 88 86 86 87 86 77 63 51 41 35 32 29 24 16 9 13 24 33 41 39 27 10 3 1 358 357 9 28 70 87 79 75 69 52 42 44 50 54 58 63 58 37 14 3 2 1 355 349 355 9 13 6 12 16 14